sat.trackr.live / text

‹ back to catalog

STARLINK-32876

NORAD 63151 · 2025-043V

PAYLOAD ACTIVE UNKNOWN

§ Identity

Operator
Country
US
Launch date
2025-03-03
Launch site
AFETR
Launch vehicle
Mass (kg)
RCS (m²)

Purposes: comms

External: N2YO · Heavens-Above · Gunter

§ Orbital elements

Epoch: 2026-05-25T03:59:06.531648Z

Period
94.27 min
Inclination
43.0028°
Eccentricity
0.0001488
Mean motion
15.27574744 rev/d
Perigee alt
482.0 km
Apogee alt
484.1 km
Semi-major
6,861.2 km
B*
2.9419e-4
RAAN
303.8783°
Arg perigee
257.3569°
Mean anomaly
102.7116°
Rev number
6,906

§ Raw data

STARLINK-328761 63151U 25043V   26145.16604782  .00007841  00000+0  29419-3 0  99992 63151  43.0028 303.8783 0001488 257.3569 102.7116 15.27574744 69060

JSON: /api/v1/satellites/63151 · /tle

For live sub-satellite position, see the globe view (requires WebGL).

§ Visibility from observer

Set your observer location to see the next 7 days of passes ≥ 10°. The values pass through the URL so the page stays shareable.

No JS? Fill the form by hand. The geolocation button needs JavaScript.